When you browse on this site, cookies collect data to enhance your experience and personalize the content and advertising you see.
Visit our Privacy Policy to learn more. By continuing to use the site, you agree to this use of cookies and data.
  • In Netherlands
  • List of Countries
  • For 7 days
  • Water Temperature
  • Weather Map
  • Weather Widgets
  • user-avatar
    Login

    Hourly Weather Bedford

    Today, 19 September, Thursday

    Time Temperature Precipitation Wind Pressure Humidity
    00:00 +12°C° 0 mm 1 mps 770 mmHg 79%
    01:00 +12°C° 0 mm 1 mps 770 mmHg 80%
    02:00 +12°C° 0 mm 1 mps 770 mmHg 82%
    03:00 +11°C° 0 mm 1 mps 769 mmHg 83%
    04:00 +11°C° 0 mm 1 mps 770 mmHg 84%
    05:00 +10°C° 0 mm 0 mps 770 mmHg 85%
    06:00 +10°C° 0 mm 0 mps 770 mmHg 85%
    07:00 +12°C° 0 mm 0 mps 770 mmHg 78%
    08:00 +14°C° 0 mm 0 mps 770 mmHg 72%
    09:00 +16°C° 0 mm 0 mps 770 mmHg 65%
    10:00 +19°C° 0 mm 1 mps 770 mmHg 60%
    11:00 +20°C° 0 mm 1 mps 770 mmHg 56%
    12:00 +21°C° 0 mm 1 mps 770 mmHg 52%
    13:00 +22°C° 0 mm 1 mps 770 mmHg 51%
    14:00 +22°C° 0 mm 1 mps 770 mmHg 50%
    15:00 +22°C° 0 mm 1 mps 769 mmHg 49%
    16:00 +21°C° 0 mm 1 mps 769 mmHg 54%
    17:00 +20°C° 0 mm 1 mps 769 mmHg 59%
    18:00 +19°C° 0 mm 1 mps 769 mmHg 64%
    19:00 +16°C° 0 mm 2 mps 769 mmHg 68%
    20:00 +15°C° 0 mm 2 mps 769 mmHg 72%
    21:00 +13°C° 0 mm 3 mps 769 mmHg 76%
    22:00 +14°C° 0 mm 2 mps 769 mmHg 78%
    23:00 +13°C° 0 mm 2 mps 769 mmHg 81%

    Tomorrow, 20 September, Friday

    Time Temperature Precipitation Wind Pressure Humidity
    00:00 +13°C° 0 mm 2 mps 769 mmHg 83%
    01:00 +12°C° 0 mm 2 mps 769 mmHg 85%
    02:00 +12°C° 0 mm 1 mps 768 mmHg 87%
    03:00 +12°C° 0 mm 1 mps 768 mmHg 89%
    04:00 +12°C° 0 mm 1 mps 768 mmHg 91%
    05:00 +12°C° 0 mm 1 mps 767 mmHg 92%
    06:00 +10°C° 0 mm 2 mps 767 mmHg 93%
    07:00 +13°C° 0 mm 2 mps 767 mmHg 85%
    08:00 +14°C° 0 mm 3 mps 767 mmHg 77%
    09:00 +17°C° 0 mm 4 mps 767 mmHg 69%
    10:00 +18°C° 0 mm 4 mps 766 mmHg 63%
    11:00 +19°C° 0 mm 5 mps 766 mmHg 57%
    12:00 +20°C° 0 mm 5 mps 765 mmHg 51%
    13:00 +20°C° 0 mm 6 mps 765 mmHg 50%
    14:00 +20°C° 0 mm 6 mps 764 mmHg 50%
    15:00 +20°C° 0 mm 6 mps 763 mmHg 49%
    16:00 +19°C° 0 mm 6 mps 763 mmHg 55%
    17:00 +16°C° 0 mm 5 mps 762 mmHg 60%
    18:00 +15°C° 0 mm 5 mps 762 mmHg 66%
    19:00 +14°C° 0 mm 5 mps 762 mmHg 70%
    20:00 +14°C° 0 mm 4 mps 761 mmHg 73%
    21:00 +13°C° 0 mm 4 mps 761 mmHg 77%
    22:00 +13°C° 0 mm 4 mps 761 mmHg 77%
    23:00 +13°C° 0 mm 4 mps 760 mmHg 76%

    Day after tomorrow, 21 September, Saturday

    Time Temperature Precipitation Wind Pressure Humidity
    00:00 +13°C° 0 mm 4 mps 760 mmHg 76%
    01:00 +13°C° 0 mm 4 mps 759 mmHg 76%
    02:00 +13°C° 0 mm 4 mps 759 mmHg 75%
    03:00 +12°C° 0 mm 4 mps 758 mmHg 74%
    04:00 +12°C° 0 mm 4 mps 758 mmHg 74%
    05:00 +12°C° 0 mm 4 mps 757 mmHg 74%
    06:00 +12°C° 0 mm 4 mps 757 mmHg 74%
    07:00 +13°C° 0 mm 5 mps 757 mmHg 69%
    08:00 +15°C° 0 mm 5 mps 756 mmHg 64%
    09:00 +16°C° 0 mm 6 mps 756 mmHg 58%
    10:00 +19°C° 0 mm 6 mps 756 mmHg 55%
    11:00 +20°C° 0 mm 6 mps 755 mmHg 52%
    12:00 +21°C° 0 mm 6 mps 755 mmHg 49%
    13:00 +22°C° 0 mm 6 mps 754 mmHg 50%
    14:00 +22°C° 0 mm 5 mps 753 mmHg 50%
    15:00 +22°C° 0 mm 5 mps 753 mmHg 51%
    16:00 +21°C° 0 mm 5 mps 752 mmHg 56%
    17:00 +20°C° 0 mm 4 mps 752 mmHg 60%
    18:00 +19°C° 0 mm 4 mps 752 mmHg 65%
    19:00 +18°C° 0 mm 4 mps 752 mmHg 68%
    20:00 +18°C° 0 mm 4 mps 751 mmHg 71%
    21:00 +18°C° 0 mm 4 mps 751 mmHg 74%
    22:00 +18°C° 0.1 mm 4 mps 751 mmHg 75%
    23:00 +18°C° 0.1 mm 4 mps 750 mmHg 77%

    22 September, Sunday

    Time Temperature Precipitation Wind Pressure Humidity
    00:00 +18°C° 0.1 mm 4 mps 750 mmHg 79%
    01:00 +18°C° 0.3 mm 4 mps 750 mmHg 80%
    02:00 +18°C° 0.3 mm 4 mps 749 mmHg 81%
    03:00 +18°C° 0.3 mm 3 mps 749 mmHg 82%
    04:00 +18°C° 0 mm 3 mps 749 mmHg 84%
    05:00 +18°C° 0 mm 3 mps 748 mmHg 85%
    06:00 +17°C° 0 mm 4 mps 748 mmHg 87%
    07:00 +19°C° 0 mm 4 mps 748 mmHg 84%
    08:00 +20°C° 0 mm 4 mps 748 mmHg 81%
    09:00 +21°C° 0 mm 5 mps 748 mmHg 78%
    10:00 +20°C° 1.4 mm 5 mps 748 mmHg 81%
    11:00 +19°C° 1.4 mm 5 mps 749 mmHg 84%
    12:00 +17°C° 1.4 mm 5 mps 749 mmHg 88%
    13:00 +19°C° 0.3 mm 5 mps 749 mmHg 81%
    14:00 +19°C° 0.3 mm 5 mps 749 mmHg 74%
    15:00 +20°C° 0.3 mm 5 mps 749 mmHg 67%
    16:00 +19°C° 0 mm 4 mps 749 mmHg 70%
    17:00 +18°C° 0 mm 4 mps 749 mmHg 73%
    18:00 +17°C° 0 mm 3 mps 749 mmHg 77%
    19:00 +17°C° 0 mm 3 mps 750 mmHg 79%
    20:00 +16°C° 0 mm 3 mps 750 mmHg 82%
    21:00 +16°C° 0 mm 3 mps 750 mmHg 85%
    22:00 +14°C° 0 mm 3 mps 750 mmHg 88%
    23:00 +14°C° 0 mm 3 mps 751 mmHg 90%

    23 September, Monday

    Time Temperature Precipitation Wind Pressure Humidity
    00:00 +13°C° 0 mm 3 mps 751 mmHg 93%
    01:00 +13°C° 0 mm 4 mps 751 mmHg 93%
    02:00 +13°C° 0 mm 4 mps 751 mmHg 93%
    03:00 +13°C° 0 mm 5 mps 751 mmHg 92%
    04:00 +13°C° 0 mm 5 mps 752 mmHg 92%
    05:00 +13°C° 0 mm 5 mps 752 mmHg 91%
    06:00 +13°C° 0 mm 5 mps 752 mmHg 90%
    07:00 +14°C° 0 mm 5 mps 753 mmHg 86%
    08:00 +14°C° 0 mm 5 mps 753 mmHg 82%
    09:00 +15°C° 0 mm 5 mps 753 mmHg 77%
    10:00 +16°C° 0 mm 5 mps 753 mmHg 71%
    11:00 +17°C° 0 mm 5 mps 754 mmHg 65%
    12:00 +19°C° 0 mm 5 mps 754 mmHg 58%
    13:00 +20°C° 0 mm 5 mps 753 mmHg 58%
    14:00 +20°C° 0 mm 5 mps 753 mmHg 58%
    15:00 +20°C° 0 mm 5 mps 753 mmHg 58%
    16:00 +19°C° 0.1 mm 5 mps 753 mmHg 64%
    17:00 +17°C° 0.1 mm 5 mps 753 mmHg 71%
    18:00 +15°C° 0.1 mm 4 mps 752 mmHg 78%
    19:00 +15°C° 0.5 mm 4 mps 753 mmHg 82%
    20:00 +15°C° 0.5 mm 4 mps 753 mmHg 86%
    21:00 +15°C° 0.5 mm 4 mps 753 mmHg 89%
    22:00 +15°C° 0 mm 4 mps 753 mmHg 91%
    23:00 +17°C° 0 mm 4 mps 752 mmHg 92%

    24 September, Tuesday

    Time Temperature Precipitation Wind Pressure Humidity
    00:00 +17°C° 0 mm 3 mps 752 mmHg 94%
    01:00 +17°C° 0 mm 3 mps 752 mmHg 94%
    02:00 +17°C° 0 mm 3 mps 752 mmHg 95%
    03:00 +17°C° 0 mm 3 mps 752 mmHg 95%
    04:00 +17°C° 0 mm 3 mps 752 mmHg 95%
    05:00 +16°C° 0 mm 3 mps 751 mmHg 95%
    06:00 +16°C° 0 mm 3 mps 751 mmHg 95%
    07:00 +17°C° 0 mm 4 mps 751 mmHg 92%
    08:00 +18°C° 0 mm 4 mps 750 mmHg 88%
    09:00 +19°C° 0 mm 5 mps 750 mmHg 85%
    10:00 +19°C° 2.2 mm 6 mps 749 mmHg 87%
    11:00 +17°C° 2.2 mm 7 mps 748 mmHg 88%
    12:00 +17°C° 2.2 mm 8 mps 747 mmHg 90%
    13:00 +17°C° 0.5 mm 9 mps 746 mmHg 86%
    14:00 +17°C° 0.5 mm 10 mps 746 mmHg 83%
    15:00 +18°C° 0.5 mm 10 mps 745 mmHg 79%
    16:00 +17°C° 0.1 mm 9 mps 745 mmHg 80%
    17:00 +16°C° 0.1 mm 8 mps 746 mmHg 81%
    18:00 +15°C° 0.1 mm 7 mps 746 mmHg 83%
    19:00 +15°C° 0 mm 6 mps 747 mmHg 84%
    20:00 +14°C° 0 mm 6 mps 747 mmHg 86%
    21:00 +14°C° 0 mm 5 mps 747 mmHg 88%
    22:00 +14°C° 0 mm 5 mps 747 mmHg 89%
    23:00 +14°C° 0 mm 5 mps 747 mmHg 91%
    Show more